Grand Prairie, TX

1:14 AM CDT on July 26, 2017 (GMT -0500)
Grand Prairie Municipal

Weather History for KGPM - August, 2014

Change the Weather History Date:

Sunday, August 17, 2014

  Actual Average (KRBD) Record (KRBD)
Temperature  
Mean Temperature 78 °F -  
Max Temperature 86 °F 92 °F 106 °F (2011)
Min Temperature 71 °F 72 °F 66 °F (2013)
Cooling Degree Days 12    
Growing Degree Days 28 (Base 50)    
Moisture  
Dew Point 71 °F    
Average Humidity 74    
Maximum Humidity 100    
Minimum Humidity 58    
Precipitation  
Precipitation 0.00 in - - ()
Sea Level Pressure  
Sea Level Pressure 29.94 in    
Wind  
Wind Speed 5 mph (SE)    
Max Wind Speed 17 mph    
Max Gust Speed -    
Visibility 10 miles    
Events Rain    
Averages and records for this station are not official NWS values.
T = Trace of Precipitation, MM = Missing Value Source: NWS Daily Summary

Daily Weather History Graph

Daily Weather History Graph

Search for Another Location

Airport or City:

Trip Planner

Search our weather history database for the weather conditions in past years. The results will help you decide how hot, cold, wet, or windy it might be!

Date:

Astronomy

Aug. 17, 2014 Rise Set
Actual Time 6:53 AM CDT 8:10 PM CDT
Civil Twilight 6:27 AM CDT 8:36 PM CDT
Nautical Twilight 5:56 AM CDT 9:07 PM CDT
Astronomical Twilight 5:24 AM CDT 9:39 PM CDT
Moon 12:21 AM CDT (8/17) 2:14 PM CDT (8/17)
Length of Visible Light 14h 09m
Length of Day
13h 17m
Waning Gibbous, 48% of the Moon is Illuminated
Aug 17
Waning Gibbous
Aug 25
New
Sep 2
First Quarter
Sep 8
Full
Sep 15
Last Quarter

Hourly Weather History & Observations

Time (CDT) Temp. Heat Index Dew Point Humidity Pressure Visibility Wind Dir Wind Speed Gust Speed Precip Events Conditions
12:15 AM 82.8 °F 85.3 °F 66.9 °F 59% 29.91 in 10.0 mi ESE 5.8 mph - N/A   Clear
12:35 AM 82.9 °F 85.4 °F 66.6 °F 58% 29.92 in 10.0 mi ESE 5.8 mph - N/A   Scattered Clouds
12:55 AM 82.8 °F 85.3 °F 67.1 °F 59% 29.91 in 10.0 mi SE 4.6 mph - N/A   Clear
1:15 AM 82.6 °F 85.3 °F 67.6 °F 60% 29.92 in 10.0 mi SE 4.6 mph - N/A   Clear
1:35 AM 82.6 °F 85.5 °F 67.8 °F 61% 29.91 in 10.0 mi SSE 6.9 mph - N/A   Clear
1:55 AM 82.4 °F 85.4 °F 68.0 °F 62% 29.91 in 10.0 mi SE 4.6 mph - N/A   Clear
2:15 AM 83.3 °F 86.2 °F 67.6 °F 59% 29.93 in 10.0 mi WNW 3.5 mph - N/A   Clear
2:35 AM 82.6 °F 85.5 °F 68.0 °F 61% 29.93 in 10.0 mi NNW 3.5 mph - N/A   Clear
2:55 AM 81.7 °F 84.9 °F 68.7 °F 65% 29.93 in 10.0 mi Calm Calm - N/A   Scattered Clouds
3:15 AM 81.5 °F 84.6 °F 68.5 °F 65% 29.93 in 10.0 mi Calm Calm - N/A   Clear
3:35 AM 81.0 °F 84.1 °F 68.9 °F 67% 29.92 in 10.0 mi ENE 4.6 mph - N/A   Clear
3:55 AM 80.6 °F 83.6 °F 69.3 °F 68% 29.92 in 10.0 mi Calm Calm - N/A   Clear
4:15 AM 80.6 °F 83.9 °F 69.8 °F 70% 29.92 in 10.0 mi Calm Calm - N/A   Clear
4:35 AM 80.6 °F 83.9 °F 69.8 °F 70% 29.91 in 10.0 mi East 3.5 mph - N/A   Clear
4:55 AM 80.1 °F 83.2 °F 69.8 °F 71% 29.91 in 10.0 mi Calm Calm - N/A   Clear
5:15 AM 81.5 °F 85.3 °F 70.5 °F 69% 29.92 in 10.0 mi ESE 4.6 mph - N/A   Clear
5:35 AM 81.5 °F 85.5 °F 70.9 °F 70% 29.92 in 10.0 mi SE 5.8 mph - N/A   Clear
5:55 AM 81.0 °F 84.9 °F 71.1 °F 72% 29.92 in 10.0 mi SSE 5.8 mph - N/A   Clear
6:15 AM 81.1 °F 85.4 °F 71.6 °F 73% 29.96 in 10.0 mi NW 4.6 mph - N/A   Scattered Clouds
6:35 AM 81.5 °F 85.5 °F 71.1 °F 70% 29.96 in 10.0 mi Calm Calm - N/A   Scattered Clouds
6:50 AM 82.4 °F 87.2 °F 71.6 °F 70% 29.97 in 10.0 mi NNE 4.6 mph - N/A   Mostly Cloudy
7:50 AM 77.0 °F - 75.2 °F 94% 29.97 in 7.0 mi East 9.2 mph - N/A   Scattered Clouds
8:50 AM 75.2 °F - 75.2 °F 100% 30.00 in 2.8 mi ESE 9.2 mph - N/A Rain Rain
9:50 AM 71.6 °F - 68.0 °F 88% 30.05 in 10.0 mi North 17.3 mph - N/A   Mostly Cloudy
10:50 AM 71.6 °F - 71.6 °F 100% 30.05 in 4.0 mi ENE 5.8 mph - N/A Rain Rain
12:50 PM 73.4 °F - 71.6 °F 94% 30.03 in 10.0 mi SE 9.2 mph - N/A Rain Rain
1:50 PM 73.4 °F - 73.4 °F 100% 29.99 in 10.0 mi SE 6.9 mph - N/A Rain Rain
2:50 PM 73.4 °F - 71.6 °F 94% 29.97 in 10.0 mi SSE 6.9 mph - N/A   Clear
3:50 PM 80.6 °F 84.6 °F 71.6 °F 74% 29.95 in 10.0 mi South 5.8 mph - N/A   Clear
5:50 PM 84.2 °F 89.6 °F 71.6 °F 66% 29.91 in 10.0 mi South 4.6 mph - N/A   Clear
6:50 PM 84.2 °F 88.4 °F 69.8 °F 62% 29.90 in 10.0 mi South 9.2 mph - N/A   Clear
7:50 PM 82.4 °F 87.2 °F 71.6 °F 70% 29.93 in 10.0 mi SSE 5.8 mph - N/A   Clear
8:15 PM 82.4 °F 86.7 °F 71.1 °F 68% 29.93 in 10.0 mi SSE 5.8 mph - N/A   Clear
8:35 PM 81.5 °F 85.7 °F 71.4 °F 71% 29.93 in 10.0 mi SSE 5.8 mph - N/A   Clear
8:55 PM 80.6 °F 84.9 °F 72.3 °F 76% 29.93 in 10.0 mi SE 3.5 mph - N/A   Clear
9:15 PM 80.2 °F 84.2 °F 72.1 °F 76% 29.93 in 10.0 mi SE 4.6 mph - N/A   Clear
9:35 PM 79.7 °F - 72.5 °F 79% 29.94 in 10.0 mi SSE 3.5 mph - N/A   Clear
9:55 PM 79.0 °F - 72.5 °F 80% 29.95 in 10.0 mi SE 3.5 mph - N/A   Clear
10:15 PM 78.8 °F - 72.5 °F 81% 29.95 in 10.0 mi SE 4.6 mph - N/A   Clear
10:35 PM 78.3 °F - 72.0 °F 81% 29.95 in 10.0 mi SE 4.6 mph - N/A   Clear
10:55 PM 78.3 °F - 71.6 °F 80% 29.95 in 10.0 mi SE 4.6 mph - N/A   Clear
11:15 PM 77.9 °F - 71.2 °F 80% 29.95 in 10.0 mi Calm Calm - N/A   Clear
11:35 PM 77.9 °F - 71.1 °F 79% 29.94 in 10.0 mi Calm Calm - N/A   Clear
11:55 PM 77.5 °F - 71.1 °F 80% 29.93 in 10.0 mi South 3.5 mph - N/A   Clear